KC2G Weather Reports


time (UTC)temp
F
wind
direction
speed
knots
gust
knots
rain 1hr
in
rain 24hr
in
rain mn
in
humidity
%
barometer
mb
20260504081715 44 0.0 0.0 0.00 0.00 0.00 80 1013.2
20260504081645 44 0.0 0.0 0.00 0.00 0.00 80 1013.2
20260504081554 44 0.0 0.0 0.00 0.00 0.00 80 1013.2
20260504050516 42 0.0 0.0 0.00 0.00 0.00 85 1012.5
20260504044555 42 0.0 0.0 0.00 0.00 0.00 85 1012.5
20260504043618 42 0.0 0.0 0.00 0.00 0.00 85 1012.3
20260504043055 42 0.0 0.0 0.00 0.00 0.00 85 1012.3
20260504041555 42 236 0.0 0.9 0.00 0.00 0.00 85 1012.1
20260504040057 43 0.0 0.0 0.00 0.00 0.00 81 1012.1
20260504040055 42 0.0 0.0 0.00 0.00 0.00 85 1012.1
20260504034635 43 0.0 0.0 0.00 0.00 0.00 84 1012.0
20260504034555 43 0.0 0.0 0.00 0.00 0.00 84 1012.0
20260504033055 43 0.0 0.0 0.00 0.00 0.00 81 1012.1
20260504032901 44 273 0.0 0.9 0.00 0.00 0.00 77 1011.9
20260504031555 43 0.0 0.0 0.00 0.00 0.00 78 1012.0
20260504030055 44 273 0.0 0.9 0.00 0.00 0.00 77 1011.9
20260504025700 45 0.0 0.0 0.00 0.00 0.00 72 1011.9
20260504024555 45 267 0.0 0.9 0.00 0.00 0.00 73 1011.9
20260504023055 45 0.0 0.0 0.00 0.00 0.00 72 1011.9
20260504021554 46 0.0 0.0 0.00 0.00 0.00 66 1011.8
20260504020055 47 0.0 0.0 0.00 0.00 0.00 66 1011.7
20260504015307 49 0.0 0.0 0.00 0.00 0.00 59 1011.3
20260504014657 48 0.0 0.0 0.00 0.00 0.00 60 1011.5
20260504014554 48 0.0 0.0 0.00 0.00 0.00 60 1011.5
20260504013055 49 0.0 0.0 0.00 0.00 0.00 59 1011.3
20260504011735 50 0.0 0.0 0.00 0.00 0.00 56 1011.2
20260504011555 50 0.0 0.0 0.00 0.00 0.00 56 1011.2
20260504010055 51 0.0 0.0 0.00 0.00 0.00 56 1010.9
20260504004555 52 0.0 0.0 0.00 0.00 0.00 50 1010.7
20260504003055 53 129 0.0 0.9 0.00 0.00 0.00 45 1010.5
20260504001654 56 188 0.0 0.9 0.00 0.00 0.00 38 1009.8
20260504001554 54 215 0.0 0.9 0.00 0.00 0.00 42 1010.2
20260504000142 55 184 0.0 0.9 0.00 0.00 0.00 39 1010.0
20260504000054 55 184 0.0 0.9 0.00 0.00 0.00 39 1010.0
20260503234554 56 188 0.0 0.9 0.00 0.00 0.00 38 1009.8
20260503234452 57 302 0.9 1.7 0.00 0.00 0.00 33 1009.4
20260503233055 57 189 0.9 0.9 0.00 0.00 0.00 35 1009.5
20260503231554 57 302 0.9 1.7 0.00 0.00 0.00 33 1009.4
20260503231256 58 320 0.9 1.7 0.00 0.00 0.00 31 1009.1
20260503230055 57 300 0.9 1.7 0.00 0.00 0.00 31 1009.3
20260503224554 58 320 0.9 1.7 0.00 0.00 0.00 31 1009.1
20260503223055 58 214 0.9 1.7 0.00 0.00 0.00 33 1009.0
20260503221555 58 267 0.9 1.7 0.00 0.00 0.00 31 1009.2
20260503220902 58 265 1.7 3.5 0.00 0.00 0.00 29 1009.1
20260503220254 58 297 0.9 2.6 0.00 0.00 0.00 30 1009.1
20260503220055 58 297 0.9 2.6 0.00 0.00 0.00 30 1009.1
20260503215028 58 265 1.7 3.5 0.00 0.00 0.00 29 1009.1
20260503214642 58 265 1.7 3.5 0.00 0.00 0.00 29 1009.1
20260503214554 58 265 1.7 3.5 0.00 0.00 0.00 29 1009.1
20260503213702 58 264 1.7 4.3 0.00 0.00 0.00 29 1009.0
20260503213524 58 281 1.7 3.5 0.00 0.00 0.00 29 1009.1
20260503213055 58 281 1.7 3.5 0.00 0.00 0.00 29 1009.1
20260503211554 58 264 1.7 4.3 0.00 0.00 0.00 29 1009.0
20260503210504 58 307 2.6 6.1 0.00 0.00 0.00 29 1009.1
20260503210056 58 289 2.6 4.3 0.00 0.00 0.00 29 1009.1
20260503204647 58 307 2.6 6.1 0.00 0.00 0.00 29 1009.1
20260503204555 58 307 2.6 6.1 0.00 0.00 0.00 29 1009.1
20260503203055 59 263 1.7 3.5 0.00 0.00 0.00 30 1009.0
20260503201641 58 305 1.7 3.5 0.00 0.00 0.00 30 1009.0
20260503201554 58 305 1.7 3.5 0.00 0.00 0.00 30 1009.0
20260503200054 57 255 1.7 4.3 0.00 0.00 0.00 30 1009.2
20260503194554 58 267 2.6 6.1 0.00 0.00 0.00 31 1009.2
20260503193201 58 339 0.9 2.6 0.00 0.00 0.00 32 1009.4
20260503193056 58 339 0.9 2.6 0.00 0.00 0.00 32 1009.4
20260503192846 57 318 1.7 5.2 0.00 0.00 0.00 34 1009.7
20260503191554 57 306 1.7 4.3 0.00 0.00 0.00 33 1009.6
20260503190055 57 318 1.7 5.2 0.00 0.00 0.00 34 1009.7
20260503184555 55 319 2.6 4.3 0.00 0.00 0.00 36 1009.9
20260503183055 55 280 1.7 3.5 0.00 0.00 0.00 35 1009.9
20260503182047 55 271 1.7 4.3 0.00 0.00 0.00 36 1010.0
20260503181555 55 271 1.7 4.3 0.00 0.00 0.00 36 1010.0
20260503180054 54 255 2.6 5.2 0.00 0.00 0.00 37 1010.1
20260503174554 54 301 2.6 5.2 0.00 0.00 0.00 38 1010.5
20260503173055 54 288 2.6 5.2 0.00 0.00 0.00 38 1010.4
20260503171554 54 292 2.6 4.3 0.00 0.00 0.00 40 1010.7